User: anonymous   Login
Location: Condor
(52.3263°N, 114.5541°W)
Time: 02:56:25
(UTC+00:00)
Language:

Oscar 19 - Orbit

View from above orbital plane
View from above orbital plane
View from above satellite
View from above satellite

Ground track
Ground track

The orbit data is extracted from the following two-line orbital elements,

1 20442U 90005G   24103.54388616  .00000256  00000-0  10957-3 0  9995
2 20442  98.8807  92.0969 0012150  23.4241 336.7494 14.33482827788375
Epoch (UTC): 12 April 2024 13:03:11
Eccentricity: 0.0012150
inclination: 98.8807°
perigee height: 771 km
apogee height: 789 km
right ascension of ascending node: 92.0969°
argument of perigee: 23.4241°
revolutions per day: 14.33482827
mean anomaly at epoch: 336.7494°
orbit number at epoch: 78837

The dashed part of the orbit path shows where the satellite is in the earth's shadow,  

DLR